ONEWEB-0369 (49295 NORAD) Tracking and Keplerian Element Data

This shows tracking and keplerian element data for the satellite.

Feedback or suggestion? Click here.




ElementValue
Catalog49295
NameONEWEB-0369
Epoch Orbit918
Epoch Day340.16667824
Epoch Year2021
RAAN276.2295
Inclination87.4989
Eccentricity0.0009281
Argument of Perigee78.2906
Mean Anonmoly346.4408
Mean Motion14.39598716
Decay Rate-0.00949037
L11 49295U 21090S 21340.16667824 -.00949037 00000+0 -32387+0 0 9996
L22 49295 87.4989 276.2295 0009281 78.2906 346.4408 14.39598716 9181

Live tracking and technical data element details for ONEWEB-0369 (NORAD 49295). ONEWEB-0369 can be tracked NOW for your location showing map with azimuth and elevation plus other details from your city location.

Track the satellite on the map from your city or location and see movement details for azimuth, elevation, latitude, longitude, range, height, and movement on the map or in text.







IsCatalogInMostPopularTable: catalog: 49295, numindb: 4
Update: records affected: 1



GetName: 49295 ONEWEB-0369

Hit Count: updated at: Mon, 06 Dec 2021 14:03:36 GMT